Location: ????????
(55.0559°N, 39.1270°E)
Time: 01:38:19
(UTC+00:00)

Cosmos 1400 Rocket - Pass Details

Date: 15 November 2025
Orbit: 476 x 514 km, 81.1° (Epoch: 12 December)

Event Time Altitude Azimuth Distance (km) Brightness Sun altitude
Exits shadow 02:43:03 18° 347° (NNW) 1,290 4.5 -18.6°
Maximum altitude 02:45:46 87° 71° (ENE) 499 2.5 -18.2°
Drops below altitude 10° 02:49:26 10° 166° (SSE) 1,669 5.5 -17.7°
Sets 02:51:31 0° 167° (SSE) 2,539 6.5 -17.4°
